Temp
98 97 97 94 92 91 86 85 86 85 82 80 81 81 80 80 80 80 77 78 79 75 79 81 81 81 80 79 81 81 81 79 80
98 97 97 94 92 92 91 86 86 84 82 82 83 85 80 81 81 80 80 74 77 80 80 80 76 81 81 82 81 81 80 79 79
98 98 96 94 93 92 92 91 88 88 86 85 85 86 84 84 84 83 82 77 83 84 83 83 80 79 80 80 82 80 80 78 80
98 95 96 93 93 93 92 93 92 87 87 86 87 88 84 84 84 83 82 83 83 82 81 80 83 84 82 78 78 79 79 78 80
99 97 96 94 94 92 91 91 92 90 89 84 88 85 83 82 83 81 83 86 86 86 81 84 83 81 81 79 80 79 78 79 78
95 95 94 94 94 91 90 89 87 88 88 83 87 85 86 83 83 85 83 83 84 84 84 84 84 82 81 80 81 79 79 79 78
95 93 91 93 93 91 89 88 86 86 88 89 86 86 87 84 85 87 84 84 81 82 84 84 84 84 83 84 82 78 79 81 79
94 92 92 92 89 87 86 85 86 86 88 85 84 84 82 83 85 85 84 82 82 83 83 82 83 84 83 84 77 75 73 76 79
92 91 91 91 89 86 85 84 84 85 86 85 83 83 84 84 81 81 81 81 81 80 80 80 81 81 81 75 75 66 67 70 75
92 91 92 90 88 84 85 85 85 83 86 87 85 85 82 79 80 80 80 80 79 79 79 79 80 80 79 73 69 63 64 68 76
94 94 92 91 91 87 86 88 88 87 88 84 83 80 80 79 79 78 78 77 77 77 78 78 78 78 77 71 65 61 62 65 73
97 95 94 93 95 90 88 87 86 85 83 83 81 79 78 78 77 75 76 75 75 74 76 76 77 77 77 71 66 60 60 63 72
95 96 96 94 95 91 89 86 87 83 81 80 78 77 74 74 72 74 74 75 74 73 73 75 77 75 72 67 68 57 59 59 70
94 93 93 95 95 90 88 88 87 80 80 78 77 73 72 73 74 74 74 72 72 72 72 73 73 71 71 70 65 61 58 58 63
91 90 90 93 92 89 90 89 83 79 76 73 72 73 72 73 74 72 68 68 66 66 65 64 64 65 67 67 67 61 58 59 59
89 90 88 90 89 86 85 80 80 74 72 71 72 74 72 72 70 70 69 66 64 63 63 62 62 62 64 68 67 65 59 59 60
87 87 86 88 87 84 80 79 77 76 73 73 73 73 70 70 69 67 68 66 65 63 62 62 63 64 65 65 66 65 63 62 61
87 86 85 86 84 79 80 79 78 77 77 77 74 73 69 69 70 69 68 69 66 67 64 59 63 65 66 68 64 57 53 56 61
87 85 85 79 78 76 76 76 76 77 76 76 74 71 70 70 71 70 70 68 62 49 53 50 49 52 59 57 53 50 50 50 51
75 81 81 75 77 77 75 76 75 75 75 74 71 74 72 73 70 68 67 68 68 64 55 49 49 50 52 54 50 49 49 48 49
MSLP
996.48 997.34 998.43 1000.08 1001.66 1002.85 1004.19 1005.49 1006.33 1007.26 1008.28 1009.07 1009.63 1010.03 1010.36 1010.53 1010.71 1011.09 1011.62 1011.61 1011.68 1011.03 1011.48 1011.62 1011.85 1012.10 1012.47 1012.74 1013.09 1013.36 1013.54 1013.79 1014.08
995.79 996.65 997.99 999.74 1001.43 1002.88 1003.91 1005.27 1005.93 1006.92 1007.96 1008.57 1009.03 1009.37 1009.87 1009.96 1010.21 1010.69 1011.01 1011.76 1011.73 1011.29 1011.68 1011.83 1011.66 1012.02 1012.21 1012.43 1012.71 1013.09 1013.36 1013.59 1013.78
995.27 996.41 997.81 999.53 1001.15 1002.57 1003.82 1004.58 1005.75 1006.53 1007.41 1008.00 1008.40 1008.45 1008.96 1009.36 1009.71 1010.47 1011.01 1011.70 1011.27 1011.21 1011.70 1011.59 1011.35 1011.77 1011.98 1012.33 1012.58 1012.91 1013.22 1013.44 1013.63
995.25 996.79 997.85 999.49 1000.93 1002.26 1003.54 1004.15 1004.99 1006.24 1006.87 1007.52 1008.01 1008.26 1008.50 1008.80 1009.13 1009.75 1010.85 1011.11 1011.08 1011.59 1011.38 1011.41 1011.38 1011.70 1011.90 1012.21 1012.45 1012.75 1012.95 1013.20 1013.36
995.65 996.67 998.09 999.60 1000.82 1002.12 1003.30 1004.13 1004.68 1005.41 1006.26 1007.17 1007.57 1007.92 1008.39 1008.83 1009.47 1009.61 1009.91 1010.17 1010.64 1010.84 1011.04 1011.08 1011.46 1011.80 1011.99 1012.42 1012.47 1012.68 1012.86 1013.11 1013.23
996.44 997.12 998.39 999.57 1000.70 1002.01 1003.09 1003.95 1004.73 1005.40 1006.18 1006.76 1007.29 1007.86 1008.23 1008.76 1009.24 1009.61 1009.94 1010.27 1010.44 1010.74 1010.88 1011.21 1011.41 1011.81 1012.06 1012.33 1012.39 1012.68 1012.74 1012.90 1013.00
996.71 997.47 998.64 999.66 1000.66 1001.80 1003.00 1003.87 1004.70 1005.42 1006.10 1006.47 1007.00 1007.70 1008.26 1008.85 1009.20 1009.32 1009.93 1010.34 1010.67 1011.02 1011.24 1011.51 1011.75 1011.91 1012.06 1012.25 1012.49 1012.93 1013.04 1012.93 1012.98
996.84 997.70 998.76 999.76 1000.72 1001.96 1003.11 1004.05 1004.81 1005.45 1006.01 1006.45 1006.87 1007.72 1008.20 1008.82 1008.80 1009.08 1009.90 1010.56 1011.05 1011.40 1011.63 1011.77 1011.96 1012.12 1012.34 1012.51 1013.11 1013.65 1013.56 1013.27 1013.04
996.80 997.81 998.73 999.78 1000.86 1001.95 1002.98 1004.00 1004.82 1005.58 1005.90 1006.44 1006.85 1007.79 1008.23 1008.67 1009.46 1009.66 1010.25 1010.90 1011.32 1011.69 1012.01 1012.23 1012.33 1012.59 1012.74 1013.33 1014.12 1014.54 1014.28 1014.08 1013.67
996.76 997.61 998.52 999.60 1000.75 1001.85 1002.76 1003.72 1004.65 1005.34 1005.71 1006.30 1007.09 1007.67 1008.27 1008.98 1009.75 1010.25 1010.79 1011.32 1011.65 1012.08 1012.37 1012.54 1012.64 1012.78 1013.00 1013.85 1014.75 1015.03 1014.93 1014.56 1014.13
996.39 997.30 998.22 999.23 1000.36 1001.47 1002.38 1003.27 1004.13 1004.97 1005.62 1006.33 1007.12 1008.11 1008.86 1009.48 1009.84 1010.46 1010.99 1011.60 1011.97 1012.09 1012.49 1012.76 1012.83 1013.03 1013.38 1014.24 1015.20 1015.22 1015.22 1014.96 1014.53
996.38 997.14 997.94 998.84 999.81 1000.90 1002.00 1002.97 1003.78 1004.67 1005.59 1006.43 1007.36 1008.40 1008.95 1009.20 1009.33 1009.84 1010.95 1011.51 1012.02 1012.03 1012.39 1012.82 1013.26 1013.38 1013.65 1014.46 1015.39 1015.60 1015.44 1015.25 1014.86
997.08 997.52 998.00 998.69 999.51 1000.44 1001.46 1002.49 1003.49 1004.56 1005.70 1006.66 1007.32 1008.23 1008.84 1009.29 1010.07 1010.32 1011.05 1011.72 1012.37 1012.60 1012.57 1012.72 1013.10 1013.56 1014.08 1014.46 1015.30 1015.87 1015.87 1015.70 1015.22
997.86 998.47 998.81 999.07 999.62 1000.56 1001.53 1002.40 1003.25 1004.50 1005.76 1006.78 1007.16 1008.46 1009.11 1009.54 1010.23 1010.81 1011.37 1012.04 1012.69 1012.96 1013.12 1013.05 1013.54 1013.66 1014.25 1014.57 1015.21 1015.97 1016.12 1015.94 1015.80
998.66 999.08 999.62 999.83 1000.11 1001.00 1001.78 1002.69 1003.62 1004.85 1006.30 1007.15 1007.71 1008.65 1009.41 1010.05 1010.64 1011.21 1011.96 1012.51 1013.30 1013.58 1013.91 1014.31 1014.14 1014.56 1014.34 1014.62 1014.83 1015.74 1016.20 1016.28 1016.03
999.18 999.55 1000.27 1000.59 1000.99 1001.69 1002.54 1003.59 1004.39 1005.50 1006.79 1007.69 1008.37 1008.95 1009.81 1010.45 1011.18 1011.78 1012.32 1012.74 1013.34 1013.87 1014.45 1015.06 1015.17 1015.11 1013.96 1014.16 1014.31 1015.57 1016.25 1016.32 1016.24
999.71 1000.20 1000.75 1001.01 1001.48 1002.04 1003.17 1004.04 1005.05 1005.77 1006.76 1007.52 1008.17 1008.87 1009.95 1010.55 1011.18 1011.81 1012.44 1013.02 1013.65 1014.19 1014.71 1014.88 1014.72 1014.56 1014.02 1014.03 1014.73 1015.10 1016.15 1016.26 1016.07
999.99 1000.63 1001.31 1001.72 1002.02 1002.85 1003.46 1004.27 1005.00 1005.68 1006.38 1007.12 1007.93 1008.68 1009.57 1010.37 1011.08 1011.71 1012.32 1012.78 1013.36 1013.88 1014.32 1014.71 1014.28 1013.84 1014.06 1014.45 1015.14 1016.14 1016.25 1016.01 1016.12
1000.42 1000.96 1001.65 1002.67 1003.31 1003.67 1004.18 1004.78 1005.20 1005.71 1006.22 1006.87 1007.70 1008.73 1009.29 1010.06 1010.65 1011.46 1011.85 1012.56 1013.77 1014.22 1014.35 1014.74 1014.59 1013.80 1013.70 1014.65 1014.96 1015.72 1016.11 1016.15 1016.29
1001.56 1001.91 1002.04 1002.87 1003.33 1003.86 1004.47 1005.03 1005.49 1005.92 1006.24 1006.84 1007.54 1008.06 1008.96 1009.43 1010.12 1011.06 1011.53 1011.95 1012.64 1013.52 1014.67 1014.62 1014.41 1014.38 1014.37 1014.55 1015.26 1015.74 1016.02 1016.40 1016.79
Wind_Speed
14 13 14 13 11 9 16 15 14 12 13 13 14 15 14 11 12 5 7 10 4 5 3 2 3 6 7 7 6 6 5 3 4
6 15 15 16 14 11 11 18 13 13 14 13 13 13 9 10 8 8 4 10 12 4 4 2 4 4 3 4 6 5 6 4 5
9 15 15 17 15 14 12 15 13 15 16 14 12 11 12 9 8 7 5 12 5 4 4 3 1 4 2 2 3 5 5 5 4
4 19 14 15 14 15 13 13 16 16 14 12 9 7 7 8 7 6 7 5 5 4 2 3 1 1 3 4 1 4 5 5 4
9 14 15 14 13 14 12 11 12 12 12 12 12 10 5 8 6 6 4 4 4 3 5 3 4 3 4 4 4 4 4 3 4
8 13 13 13 14 13 11 12 9 10 8 8 9 8 9 8 8 7 5 4 5 5 5 5 5 6 4 3 4 5 5 5 4
11 11 12 11 13 13 11 9 10 10 9 8 9 9 10 8 8 11 8 7 6 5 4 4 4 4 4 2 5 9 6 2 5
10 11 14 12 12 12 11 10 10 9 9 6 9 11 7 9 7 10 9 7 6 5 2 5 3 1 4 2 9 7 8 8 6
7 10 13 13 14 16 15 13 12 11 10 8 7 10 11 8 10 10 9 6 5 5 5 5 3 4 3 10 7 11 11 9 7
6 11 12 14 17 15 14 15 12 10 9 9 10 5 10 11 10 9 8 6 6 4 3 4 2 3 6 9 7 13 13 12 7
9 9 12 14 14 15 16 16 15 12 10 9 9 9 8 9 10 9 7 6 5 5 3 2 2 3 4 9 6 11 13 14 6
2 8 10 12 14 14 15 15 13 12 11 12 11 10 11 11 11 10 7 6 6 6 5 4 2 3 3 9 7 9 10 10 8
6 5 6 9 8 14 16 14 13 12 12 11 13 13 10 8 5 6 5 5 5 3 4 5 4 5 6 9 7 8 9 9 5
7 7 5 4 9 14 13 13 13 14 13 13 11 9 8 6 6 6 7 7 4 2 3 5 4 7 4 7 7 5 6 7 5
6 7 7 5 7 10 10 8 10 11 11 9 10 11 10 8 7 5 6 7 5 6 6 6 5 1 2 4 7 5 0 4 4
6 7 8 6 6 8 10 10 10 11 13 12 11 10 9 8 9 7 6 7 6 5 5 3 4 4 4 3 5 5 4 4 5
6 5 7 8 7 10 10 11 11 11 14 13 12 11 10 9 7 8 8 5 4 3 3 5 6 4 3 4 4 5 4 3 3
7 8 7 3 7 9 8 10 11 9 13 14 12 12 10 10 8 11 9 7 6 7 2 3 4 4 1 3 4 3 4 4 4
1 7 6 9 5 3 8 10 9 8 13 12 11 10 9 9 8 7 8 9 6 8 7 1 8 5 9 4 11 10 7 7 5
3 5 8 10 12 12 7 8 8 7 10 9 10 11 11 8 8 7 7 7 8 8 3 4 7 8 10 11 11 8 7 2 4
Wind_Direction
126 140 134 144 151 161 152 160 155 168 172 171 177 186 201 212 220 207 197 203 238 226 204 120 257 190 196 198 198 213 185 199 236
186 148 149 145 147 161 160 155 155 159 159 178 182 192 196 206 212 209 214 39 270 180 132 152 235 280 246 216 197 202 196 200 212
159 143 142 140 148 157 171 162 164 164 175 176 194 203 174 195 216 188 173 177 207 67 118 171 309 158 159 256 212 210 186 210 222
12 139 141 136 149 155 170 186 159 169 187 178 192 189 189 169 204 196 133 196 162 168 174 180 121 236 136 166 187 210 190 221 220
85 124 131 138 149 150 166 178 172 167 163 172 188 185 181 160 161 106 198 186 167 129 140 160 162 196 169 169 169 174 170 198 218
115 126 137 148 153 151 166 165 164 155 173 158 176 162 167 149 152 169 164 183 149 103 61 21 77 97 99 97 121 178 173 171 161
140 142 140 158 155 155 161 153 150 152 177 181 154 145 148 142 200 168 178 141 117 113 99 86 86 73 52 85 67 46 37 108 158
139 154 157 159 150 140 141 138 144 149 183 169 160 152 138 172 208 112 107 91 81 99 122 73 58 70 96 50 62 34 13 3 344
150 160 162 160 145 147 150 153 160 175 191 154 142 174 166 158 104 107 108 107 101 81 72 53 51 52 44 66 59 11 20 9 331
165 164 176 165 155 157 157 161 168 182 180 146 159 133 133 114 122 116 115 125 125 127 137 122 96 62 78 77 63 18 4 359 316
162 178 179 166 162 166 167 168 174 170 160 152 144 119 124 132 128 129 136 141 157 142 135 145 127 116 99 95 63 27 3 345 303
124 163 168 170 175 166 163 169 168 167 158 152 146 151 156 159 157 152 147 156 169 158 142 131 177 109 122 104 79 28 12 354 322
95 109 166 171 177 156 155 158 163 154 150 161 158 164 171 143 117 123 128 139 129 130 151 165 142 116 89 103 105 45 21 7 316
110 129 179 165 183 147 152 157 163 162 158 165 160 143 133 127 115 127 112 104 82 58 28 95 62 99 91 100 89 83 16 6 304
148 144 129 184 137 135 146 149 143 139 144 134 120 126 127 132 123 98 95 108 86 76 71 48 43 70 163 173 119 89 277 328 0
144 151 144 180 163 141 121 117 130 135 130 135 144 143 141 147 130 135 135 125 118 106 104 148 215 228 219 210 115 142 181 235 272
135 125 163 177 175 149 131 132 139 147 149 160 157 154 150 152 148 150 153 135 121 124 176 210 220 223 250 124 164 140 166 227 233
149 152 157 193 129 143 158 153 159 161 164 171 166 157 162 156 171 174 166 164 166 189 197 302 229 225 102 153 128 115 135 89 46
331 157 157 142 155 152 158 171 166 184 160 170 159 166 160 169 168 189 169 163 149 57 108 47 322 184 133 71 112 130 101 77 33
320 312 175 155 170 166 175 173 173 178 165 168 175 176 171 178 160 162 174 179 183 171 112 71 62 82 113 115 135 122 104 85 314